Location: Poughquag
(41.6090°N, 73.6820°W)
Time: 11:32:59
(UTC-04:00)

ACS3 Solar Sail - Pass Details

Date: 23 June 2024
Orbit: 992 x 1023 km, 97.4° (Epoch: 12 July)

Event Time Altitude Azimuth Distance (km) Brightness Sun altitude
Exits shadow 21:21:08 - 127° (SE) 2,813 6.5 -8.0°
Reaches altitude 10° 21:21:17 10° 126° (SE) 2,762 6.5 -8.0°
Maximum altitude 21:26:38 31° 67° (ENE) 1,664 5.8 -8.8°
Drops below altitude 10° 21:31:58 10° 7° (N) 2,766 7.7 -9.5°
Sets 21:34:42 0° 358° (N) 3,718 8.6 -9.9°
